Location: Degersen
(52.2871°N, 9.5716°E)
Time: 00:02:50
(UTC+00:00)

Cosmos 1809 Rocket - Pass Details

Date: 20 January 2026
Orbit: 941 x 963 km, 82.5° (Epoch: 18 February)

Event Time Altitude Azimuth Distance (km) Brightness Sun altitude
Rises 05:49:57 0° 348° (NNW) 3,661 7.2 -13.2°
Reaches altitude 10° 05:52:28 10° 348° (NNW) 2,709 6.6 -12.9°
Maximum altitude 05:58:41 87° 261° (W) 968 4.5 -11.9°
Drops below altitude 10° 06:04:50 10° 173° (S) 2,677 7.2 -11.0°
Sets 06:07:18 0° 173° (S) 3,615 7.9 -10.7°
